Wind_Speed
15 21 26 26 25 22 17 20 27 21 11 3 5 8 10 11 12 9 11 15 11 16 15 21 23 26 29 32 37 38 34 30 20 16 14 11 10 14 22 33 48 53 54
34 27 25 24 23 22 21 25 19 8 1 3 6 6 10 12 7 15 15 17 21 23 22 25 27 25 26 30 33 35 37 34 30 25 18 13 11 12 13 16 19 27 35
42 42 41 34 30 24 22 15 6 3 4 3 4 9 9 8 14 15 20 16 16 20 23 27 25 24 24 28 32 34 36 36 34 32 35 31 16 13 14 14 12 14 14
33 28 23 18 13 12 10 8 4 8 4 3 7 9 6 5 18 17 17 13 11 14 21 26 26 23 21 21 27 30 32 35 36 36 41 29 30 31 25 23 23 24 26
14 12 12 13 13 10 11 8 12 6 3 6 7 7 7 13 16 13 14 10 8 14 20 25 26 25 23 20 21 25 27 31 35 37 38 38 50 39 41 42 41 40 38
19 15 13 14 14 17 15 16 10 4 4 5 7 7 8 12 10 8 8 8 8 14 14 20 20 22 23 20 18 19 23 24 28 31 33 35 36 34 37 40 41 40 40
23 22 20 19 21 20 16 13 9 4 6 7 8 9 11 11 11 11 8 5 7 9 8 11 16 19 19 18 19 15 17 19 22 27 30 30 34 32 32 34 35 37 37
27 26 25 23 20 17 14 12 9 7 9 8 10 9 11 11 10 9 7 9 15 16 12 13 12 10 16 18 15 17 15 16 19 21 24 28 28 27 29 30 29 30 29
26 23 21 19 16 14 11 10 10 9 6 8 10 8 9 10 10 9 12 16 15 13 12 10 18 13 9 12 14 14 15 14 15 18 19 21 24 27 26 26 26 27 28
20 18 16 14 11 10 9 9 7 3 2 4 6 5 4 4 7 13 13 12 11 5 7 11 11 13 8 7 10 10 13 15 14 16 20 24 24 25 26 26 28 28 26
14 14 13 12 11 10 11 11 9 5 4 3 4 3 1 2 3 4 13 12 10 6 2 10 2 8 5 8 10 9 10 12 12 14 19 20 20 21 22 22 20 20 21
13 12 11 10 8 8 9 9 10 8 4 3 2 4 5 5 6 5 3 10 13 10 7 1 4 8 2 6 4 8 5 5 8 11 13 14 15 13 12 16 17 17 22
8 7 8 7 5 5 4 3 4 3 2 2 1 1 2 4 6 7 9 4 10 14 13 12 3 4 5 4 4 3 3 5 8 8 10 10 11 9 11 11 14 20 24
5 5 5 5 5 5 6 7 8 8 7 5 3 4 3 4 5 5 7 11 7 12 9 13 12 10 6 7 5 4 5 4 5 10 9 9 7 9 12 13 19 23 21
2 3 4 6 7 10 11 10 9 11 12 11 12 12 12 9 9 8 9 9 9 9 8 6 12 14 12 10 7 5 2 4 2 7 10 11 7 5 13 14 16 20 26
8 7 7 9 12 17 18 18 15 20 18 14 18 16 18 17 15 13 13 14 13 11 13 11 10 10 12 13 14 15 12 10 8 7 7 13 10 9 9 12 17 18 22
15 14 15 18 22 23 20 20 21 25 26 23 25 20 23 25 23 20 18 18 19 20 17 16 17 15 14 15 14 15 13 13 14 12 11 9 12 10 8 5 13 17 23
17 19 22 25 26 24 26 26 26 25 29 30 28 31 31 31 31 27 26 23 22 23 24 23 22 21 19 17 15 15 16 16 14 18 22 16 14 13 14 12 12 9 17
19 19 20 22 23 25 27 29 29 32 34 33 35 35 35 30 30 32 31 30 30 28 29 30 28 26 24 23 22 18 18 22 20 18 17 18 18 18 17 17 16 15 15
21 22 23 24 25 26 26 27 28 27 28 28 28 27 26 27 27 28 28 26 28 31 33 35 34 32 29 27 26 22 21 13 30 24 22 22 22 17 21 23 22 21 21
23 24 25 26 27 28 29 30 30 29 27 25 22 22 22 25 30 27 26 29 31 30 32 32 34 33 35 35 31 30 30 31 33 31 28 26 18 24 22 17 18 18 20
26 28 29 29 30 30 30 29 28 27 25 23 21 21 22 24 27 30 29 28 29 31 31 31 31 33 36 39 39 37 33 34 36 35 20 35 31 28 26 28 27 27 27
29 31 33 34 32 30 29 27 25 25 25 26 25 25 26 27 28 28 29 29 29 30 30 30 31 31 30 29 37 40 37 37 37 34 35 21 45 36 30 36 35 35 31
32 33 33 31 32 31 30 30 29 29 29 29 28 26 24 25 27 29 30 29 30 30 32 33 32 34 37 33 27 32 39 43 43 37 38 40 28 41 33 34 35 36 34
34 33 32 30 31 32 31 29 31 32 30 31 29 29 26 27 28 29 29 29 31 30 32 31 31 32 32 35 36 33 34 34 33 38 37 46 49 50 34 37 34 40 39
34 33 32 30 31 32 31 30 30 32 34 32 30 30 31 32 33 34 33 31 31 33 35 34 34 34 35 34 37 34 35 39 38 37 40 40 45 49 45 43 29 35 40
Wind_Direction
207 205 229 228 238 243 263 283 298 303 311 355 30 7 349 346 352 114 106 70 50 45 37 44 41 40 49 53 53 54 55 59 69 93 131 141 164 195 210 217 225 229 234
241 207 216 243 236 240 266 283 289 311 90 58 26 10 352 348 26 123 107 89 67 59 62 56 48 43 47 52 57 58 57 57 65 71 82 99 132 154 173 189 201 219 228
241 249 259 256 260 259 263 268 276 122 95 53 351 354 349 343 124 114 110 91 65 53 58 49 46 43 45 56 63 64 63 62 66 79 76 64 85 119 146 154 145 160 157
236 236 238 237 227 222 223 200 140 114 93 65 346 355 8 92 128 119 124 102 69 50 59 56 50 48 48 56 73 70 69 68 69 75 80 133 79 84 100 111 115 119 120
189 189 174 164 163 178 176 176 138 111 74 7 20 57 59 121 126 135 118 103 80 71 77 54 54 50 49 58 66 73 73 75 78 80 85 86 75 84 92 99 104 106 108
127 131 135 140 146 151 155 140 130 108 51 54 72 80 97 123 134 139 126 123 82 82 73 53 56 56 52 53 59 69 76 80 85 88 89 91 90 96 97 100 102 105 107
114 116 121 130 133 132 134 136 139 117 88 87 77 85 94 106 124 120 135 150 93 105 77 52 63 57 57 48 51 58 66 80 83 95 99 99 103 107 105 106 107 109 111
112 115 116 119 124 130 136 141 148 115 104 80 84 91 93 96 122 122 142 131 115 105 93 46 45 47 58 58 59 54 73 82 91 106 106 108 109 111 116 117 115 117 120
107 112 115 121 130 138 145 152 148 136 124 102 94 102 81 92 133 154 143 135 119 100 72 70 48 30 66 64 65 66 82 86 95 110 117 116 115 116 120 118 117 117 120
100 100 103 111 106 114 121 124 123 115 39 38 74 93 90 77 133 168 184 187 167 152 79 80 46 39 48 90 78 80 97 92 107 111 113 120 118 123 124 125 124 123 123
100 99 102 102 102 102 100 96 100 99 79 45 56 66 338 311 338 160 204 208 218 219 199 92 45 9 57 89 89 102 115 98 113 129 119 123 113 119 125 127 131 129 127
79 78 78 78 86 94 94 89 96 100 104 102 76 28 357 341 297 285 239 225 235 222 210 126 233 306 85 119 129 102 116 137 122 131 135 131 123 114 128 133 136 136 134
72 58 52 52 54 46 26 21 34 52 76 97 182 193 338 3 354 318 291 282 242 235 223 239 293 305 308 229 153 154 168 176 198 167 140 142 156 148 134 144 149 147 143
56 47 35 15 349 332 332 325 319 312 312 303 273 252 263 283 310 321 304 304 272 233 243 247 249 242 268 234 211 104 118 148 171 197 186 163 163 173 162 167 150 161 155
304 312 318 310 303 301 298 288 296 302 296 298 297 290 281 269 270 263 278 290 305 280 261 262 256 256 261 249 234 231 225 175 193 222 219 214 208 219 178 169 167 168 173
317 300 292 297 305 302 299 288 295 300 281 290 293 288 285 278 267 261 260 266 269 270 282 274 259 259 263 255 260 272 275 262 237 232 232 244 239 252 224 205 191 190 188
303 287 290 295 297 300 288 290 289 290 287 283 284 287 284 278 269 263 260 258 263 267 259 262 273 272 275 280 272 268 263 267 244 241 240 255 231 226 244 222 204 211 212
288 281 283 287 294 293 287 286 282 283 286 274 275 287 284 276 269 262 259 258 258 261 262 262 264 272 276 278 280 275 262 253 244 257 253 259 253 261 260 261 262 242 230
298 298 295 295 295 293 288 285 277 267 266 268 272 284 279 279 275 267 263 259 253 252 256 262 264 265 269 273 272 274 262 277 268 268 253 250 263 270 272 275 274 276 268
299 299 299 300 299 299 299 295 289 284 280 278 278 279 274 273 282 275 269 261 266 259 256 255 258 261 263 267 267 259 257 275 268 264 253 255 255 272 268 262 275 268 269
306 302 300 299 300 299 296 289 283 279 278 279 280 280 278 273 276 278 269 261 259 259 254 254 253 253 259 265 263 261 251 252 254 256 256 255 260 266 259 260 265 285 274
308 306 303 300 296 294 290 283 277 273 271 274 278 281 277 274 275 277 274 267 266 263 259 258 259 258 253 254 260 255 252 252 256 254 262 264 255 265 261 257 264 273 278
309 306 303 300 296 296 293 290 288 286 286 286 286 284 282 279 275 275 270 270 267 265 262 260 260 263 259 262 254 253 253 249 248 248 249 236 262 264 260 266 264 267 268
309 307 303 301 298 298 298 295 291 288 284 281 280 278 277 277 279 278 273 274 271 272 269 262 262 264 264 258 258 253 250 251 249 243 242 246 209 247 260 267 267 268 264
307 305 303 302 300 296 292 290 290 287 284 279 273 273 272 272 269 266 269 272 274 271 269 267 264 264 262 259 256 257 257 255 256 252 251 249 244 252 256 263 276 264 267
305 303 298 294 289 287 286 285 287 288 285 280 277 278 276 277 277 276 271 267 267 268 269 268 267 266 267 264 257 256 254 255 257 258 256 252 248 252 250 254 252 263 271
Height
10989 10991 10992 10993 10994 10995 10994 10994 10996 10996 10995 10993 10993 10992 10990 10988 10987 10986 10984 10984 10982 10979 10977 10974 10969 10966 10961 10955 10950 10945 10940 10936 10932 10931 10930 10930 10930 10930 10932 10933 10934 10936 10938
10990 10990 10990 10992 10994 10995 10996 10996 10997 10996 10995 10995 10994 10992 10989 10987 10987 10988 10987 10986 10983 10981 10979 10975 10971 10968 10965 10960 10955 10951 10947 10942 10938 10935 10934 10933 10933 10932 10932 10932 10933 10936 10939
10987 10989 10990 10994 10994 10996 10997 10998 10998 10997 10997 10995 10994 10993 10991 10988 10988 10989 10989 10987 10986 10984 10982 10978 10974 10971 10967 10965 10960 10957 10954 10950 10946 10944 10944 10946 10944 10938 10935 10936 10937 10939 10941
10987 10990 10991 10992 10994 10996 10998 10999 10999 10998 10998 10996 10995 10994 10991 10990 10991 10991 10991 10990 10989 10988 10986 10982 10980 10977 10974 10970 10967 10964 10961 10958 10955 10953 10955 10976 10957 10945 10942 10941 10943 10944 10945
10987 10989 10990 10992 10994 10997 10999 11000 11001 11001 10999 10998 10997 10996 10993 10992 10993 10993 10994 10993 10992 10991 10989 10986 10983 10981 10978 10976 10973 10970 10967 10965 10963 10961 10961 10962 10961 10965 10954 10949 10947 10948 10950
10987 10989 10991 10993 10996 10998 11000 11001 11003 11002 11000 10999 10998 10996 10995 10994 10994 10994 10994 10994 10994 10993 10991 10988 10986 10984 10982 10981 10979 10976 10973 10970 10968 10967 10966 10965 10967 10973 10966 10960 10957 10956 10957
10991 10992 10993 10996 10998 11000 11001 11003 11003 11002 11002 11001 11000 10998 10997 10996 10996 10995 10995 10994 10995 10995 10994 10992 10990 10988 10986 10984 10982 10981 10979 10976 10974 10971 10971 10970 10971 10973 10970 10969 10965 10965 10965
10995 10997 10998 11000 11002 11003 11004 11005 11005 11004 11003 11003 11002 11000 10999 10999 10997 10996 10996 10996 10996 10997 10996 10994 10993 10991 10989 10986 10985 10984 10982 10981 10979 10978 10978 10975 10973 10974 10974 10973 10972 10971 10971
11002 11003 11004 11004 11006 11006 11006 11007 11007 11006 11005 11004 11003 11002 11001 11000 10999 10997 10997 10998 10997 10997 10996 10995 10994 10993 10991 10990 10989 10987 10986 10984 10983 10982 10981 10980 10978 10977 10977 10977 10977 10976 10976
11007 11008 11008 11008 11009 11009 11009 11009 11009 11008 11007 11007 11004 11003 11002 11000 10999 10998 10997 10998 10997 10996 10996 10995 10995 10995 10995 10993 10992 10990 10989 10987 10987 10986 10985 10985 10983 10983 10982 10982 10981 10981 10981
11011 11011 11011 11011 11012 11011 11010 11009 11009 11009 11008 11007 11006 11005 11003 11001 11000 10999 10998 10998 10997 10997 10997 10997 10997 10997 10997 10997 10996 10994 10993 10991 10990 10989 10988 10989 10987 10987 10986 10985 10986 10985 10985
11015 11014 11013 11012 11012 11012 11011 11010 11010 11009 11008 11007 11007 11006 11004 11002 11001 10999 10999 10998 10998 10997 10998 10998 10998 10998 11000 11000 11000 10997 10995 10993 10993 10992 10991 10991 10990 10989 10989 10988 10987 10988 10987
11017 11016 11015 11014 11013 11012 11011 11009 11008 11008 11008 11007 11006 11006 11005 11002 11000 10999 10998 10999 10998 10997 10997 10998 10998 10998 10999 11000 10998 10996 10995 10994 10993 10993 10992 10991 10991 10991 10991 10990 10990 10990 10990
11017 11016 11015 11015 11014 11013 11012 11009 11008 11007 11006 11006 11005 11004 11004 11002 11000 10999 10998 10997 10998 10996 10996 10997 10997 10996 10997 10997 10997 10996 10995 10994 10993 10993 10993 10993 10992 10992 10992 10991 10991 10992 10992
11017 11016 11015 11014 11013 11012 11011 11009 11007 11005 11003 11002 11002 11002 11001 11000 11000 10999 10997 10996 10996 10995 10994 10994 10994 10995 10996 10996 10996 10995 10996 10996 10995 10994 10994 10993 10992 10992 10992 10992 10992 10991 10991
11017 11015 11014 11013 11012 11010 11009 11007 11005 11003 11001 10999 10999 10998 10998 10998 10997 10996 10996 10995 10994 10993 10993 10993 10993 10993 10994 10995 10996 10995 10996 10996 10996 10995 10994 10993 10992 10991 10992 10992 10992 10992 10991
11017 11015 11013 11010 11008 11006 11004 11003 11001 11000 10998 10995 10993 10992 10994 10993 10992 10992 10992 10992 10991 10990 10990 10990 10989 10990 10991 10993 10995 10994 10992 10992 10995 10996 10995 10993 10992 10991 10991 10990 10992 10991 10990
11013 11012 11010 11007 11004 11001 10998 10996 10995 10994 10993 10991 10989 10986 10985 10985 10985 10985 10985 10986 10987 10986 10985 10985 10986 10986 10988 10990 10990 10988 10987 10987 10988 10992 10994 10992 10991 10990 10990 10989 10989 10988 10989
11009 11007 11004 11001 10998 10995 10992 10989 10987 10986 10984 10983 10980 10978 10977 10977 10977 10977 10978 10978 10978 10979 10980 10979 10979 10980 10984 10986 10985 10984 10981 10984 10983 10984 10988 10989 10987 10986 10987 10987 10986 10986 10986
11004 11001 10998 10995 10992 10988 10985 10982 10979 10977 10976 10975 10974 10972 10971 10970 10969 10969 10969 10970 10971 10972 10972 10972 10973 10974 10976 10980 10979 10979 10979 10983 10978 10980 10981 10981 10982 10981 10981 10981 10982 10983 10983
10999 10996 10992 10989 10985 10982 10978 10976 10973 10971 10969 10967 10966 10965 10965 10964 10962 10961 10960 10961 10962 10963 10963 10964 10966 10968 10969 10971 10974 10972 10973 10974 10974 10975 10975 10977 10977 10976 10976 10975 10976 10977 10978
10993 10990 10986 10982 10979 10976 10972 10969 10967 10964 10962 10961 10960 10958 10957 10957 10955 10953 10952 10952 10952 10953 10953 10955 10955 10957 10960 10963 10964 10968 10967 10967 10966 10967 10972 10973 10973 10972 10972 10969 10969 10970 10971
10986 10983 10979 10975 10971 10968 10964 10961 10958 10956 10954 10952 10951 10950 10948 10947 10947 10946 10945 10944 10944 10944 10944 10944 10946 10946 10948 10950 10953 10955 10958 10958 10958 10959 10964 10964 10966 10966 10965 10964 10962 10963 10964
10979 10974 10970 10967 10962 10958 10955 10952 10950 10948 10946 10945 10944 10942 10941 10939 10938 10937 10936 10936 10935 10935 10935 10936 10936 10937 10938 10939 10942 10942 10945 10946 10946 10948 10953 10954 10952 10957 10956 10957 10957 10957 10958
10970 10965 10960 10957 10953 10950 10947 10944 10941 10939 10937 10936 10935 10933 10932 10931 10930 10930 10928 10927 10925 10925 10926 10926 10927 10927 10928 10928 10932 10934 10934 10933 10934 10936 10939 10940 10942 10942 10948 10951 10955 10950 10949
10960 10956 10952 10948 10946 10942 10939 10936 10934 10931 10928 10927 10926 10924 10922 10921 10920 10919 10919 10918 10918 10917 10916 10917 10917 10917 10918 10918 10919 10922 10924 10923 10924 10925 10926 10928 10929 10930 10939 10939 10942 10943 10942